Location: Unspecified
(0.0000°N, 0.0000°E)
Time: 13:16:19
(UTC+00:00)

COSMOS 2508 - Pass Details

Date: 05 October 2020
Orbit: 1484 x 1504 km, 82.5° (Epoch: 26 October)

Event Time Altitude Azimuth Distance (km) Brightness Sun altitude
Rises 05:05:42 0° 29° (NNE) 4,611 ? -10.6°
Reaches altitude 10° 05:09:46 10° 46° (NE) 3,630 ? -9.6°
Maximum altitude 05:15:22 19° 87° (E) 2,996 ? -8.2°
Drops below altitude 10° 05:20:56 10° 127° (SE) 3,628 ? -6.8°
Sets 05:24:56 0° 144° (SE) 4,609 ? -5.8°
